Time,TemperatureF,DewpointF,PressureIn,WindDirection,WindDirectionDegrees,WindSpeedMPH,WindSpeedGustMPH,Humidity,HourlyPrecipIn,Conditions,Clouds,dailyrainin,SoftwareType,DateUTC
2013-02-09 01:02:00,16.0,14.0,-100.00,NE,35,14.0,36.0,92,-99.99,,,-99.99,,2013-02-09 06:02:00,
2013-02-09 01:11:00,16.0,14.0,-100.00,NE,45,9.0,31.0,92,-99.99,,,-99.99,,2013-02-09 06:11:00,
2013-02-09 01:21:00,15.0,14.0,-100.00,North,10,12.0,29.0,92,-99.99,,,-99.99,,2013-02-09 06:21:00,
2013-02-09 01:32:00,15.0,13.0,-100.00,NNE,30,10.0,29.0,92,-99.99,,,-99.99,,2013-02-09 06:32:00,
2013-02-09 01:42:00,15.0,13.0,-100.00,North,0,12.0,23.0,92,-99.99,,,-99.99,,2013-02-09 06:42:00,
2013-02-09 01:52:00,15.0,13.0,-100.00,NNE,20,9.0,23.0,91,-99.99,,,-99.99,,2013-02-09 06:52:00,
2013-02-09 02:01:00,15.0,13.0,-100.00,NNE,20,12.0,27.0,91,-99.99,,,-99.99,,2013-02-09 07:01:00,
2013-02-09 02:11:00,15.0,13.0,-100.00,North,10,9.0,31.0,91,-99.99,,,-99.99,,2013-02-09 07:11:00,
2013-02-09 02:22:00,14.0,12.0,-100.00,North,0,15.0,30.0,91,-99.99,,,-99.99,,2013-02-09 07:22:00,
2013-02-09 02:32:00,14.0,12.0,-100.00,North,355,13.0,30.0,91,-99.99,,,-99.99,,2013-02-09 07:32:00,
2013-02-09 02:42:00,14.0,12.0,-100.00,North,350,15.0,32.0,91,-99.99,,,-99.99,,2013-02-09 07:42:00,
2013-02-09 02:51:00,14.0,12.0,-100.00,North,5,10.0,30.0,92,-99.99,,,-99.99,,2013-02-09 07:51:00,
2013-02-09 03:01:00,14.0,12.0,-100.00,North,5,13.0,31.0,91,-99.99,,,-99.99,,2013-02-09 08:01:00,
2013-02-09 03:11:00,14.0,12.0,-100.00,North,0,13.0,28.0,92,-99.99,,,-99.99,,2013-02-09 08:11:00,
2013-02-09 03:32:00,14.0,12.0,-100.00,NNE,15,12.0,32.0,92,-99.99,,,-99.99,,2013-02-09 08:32:00,
2013-02-09 04:22:00,15.0,13.0,-100.00,NE,35,12.0,25.0,92,-99.99,,,-99.99,,2013-02-09 09:22:00,
2013-02-09 04:30:00,15.0,13.0,-100.00,North,0,9.0,27.0,92,-99.99,,,-99.99,,2013-02-09 09:30:00,
2013-02-09 04:32:00,15.0,13.0,-100.00,NNE,20,14.0,28.0,93,-99.99,,,-99.99,,2013-02-09 09:32:00,
2013-02-09 04:42:00,15.0,13.0,-100.00,NNW,340,10.0,28.0,92,-99.99,,,-99.99,,2013-02-09 09:42:00,
2013-02-09 04:52:00,15.0,13.0,-100.00,North,350,7.0,25.0,92,-99.99,,,-99.99,,2013-02-09 09:52:00,
2013-02-09 05:01:00,15.0,13.0,-100.00,North,350,7.0,25.0,92,-99.99,,,-99.99,,2013-02-09 10:01:00,
2013-02-09 05:11:00,15.0,13.0,-100.00,North,0,9.0,27.0,92,-99.99,,,-99.99,,2013-02-09 10:11:00,
2013-02-09 05:21:00,15.0,13.0,-100.00,North,0,9.0,27.0,92,-99.99,,,-99.99,,2013-02-09 10:21:00,
2013-02-09 05:42:00,15.0,14.0,-100.00,North,0,7.0,20.0,93,-99.99,,,-99.99,,2013-02-09 10:42:00,
2013-02-09 05:52:00,15.0,14.0,-100.00,NNW,340,8.0,23.0,93,-99.99,,,-99.99,,2013-02-09 10:52:00,
2013-02-09 06:22:00,15.0,14.0,-100.00,North,10,5.0,30.0,92,-99.99,,,-99.99,,2013-02-09 11:22:00,
2013-02-09 08:32:00,17.0,15.0,-100.00,North,5,12.0,23.0,91,-99.99,,,-99.99,,2013-02-09 13:32:00,
2013-02-09 09:32:00,18.0,15.0,-100.00,North,355,8.0,17.0,89,-99.99,,,-99.99,,2013-02-09 14:32:00,
2013-02-09 09:42:00,18.0,15.0,-100.00,North,10,6.0,21.0,88,-99.99,,,-99.99,,2013-02-09 14:42:00,
2013-02-09 09:52:00,18.0,15.0,-100.00,NNW,340,7.0,23.0,88,-99.99,,,-99.99,,2013-02-09 14:52:00,
2013-02-09 10:02:00,18.0,16.0,-100.00,NW,325,6.0,29.0,88,-99.99,,,-99.99,,2013-02-09 15:02:00,
2013-02-09 10:11:00,19.0,15.0,-100.00,North,5,6.0,23.0,87,-99.99,,,-99.99,,2013-02-09 15:11:00,
2013-02-09 10:22:00,19.0,15.0,-100.00,North,0,12.0,22.0,87,-99.99,,,-99.99,,2013-02-09 15:22:00,
2013-02-09 10:30:00,19.0,17.0,-100.00,North,5,9.0,22.0,89,-99.99,,,-99.99,,2013-02-09 15:30:00,
2013-02-09 10:32:00,19.0,16.0,-100.00,NNW,330,6.0,24.0,88,-99.99,,,-99.99,,2013-02-09 15:32:00,
2013-02-09 10:42:00,19.0,16.0,-100.00,NNE,25,6.0,22.0,88,-99.99,,,-99.99,,2013-02-09 15:42:00,
2013-02-09 10:51:00,19.0,16.0,-100.00,North,5,7.0,23.0,89,-99.99,,,-99.99,,2013-02-09 15:51:00,
2013-02-09 11:01:00,19.0,16.0,-100.00,North,0,13.0,23.0,89,-99.99,,,-99.99,,2013-02-09 16:01:00,
2013-02-09 11:11:00,19.0,17.0,-100.00,North,5,9.0,22.0,89,-99.99,,,-99.99,,2013-02-09 16:11:00,
2013-02-09 11:22:00,19.0,17.0,-100.00,North,5,9.0,22.0,89,-99.99,,,-99.99,,2013-02-09 16:22:00,
2013-02-09 11:42:00,20.0,17.0,-100.00,North,10,7.0,25.0,88,-99.99,,,-99.99,,2013-02-09 16:42:00,
2013-02-09 11:52:00,20.0,17.0,-100.00,NNW,340,6.0,20.0,88,-99.99,,,-99.99,,2013-02-09 16:52:00,
2013-02-09 12:01:00,20.0,17.0,-100.00,NNW,335,12.0,24.0,87,-99.99,,,-99.99,,2013-02-09 17:01:00,
2013-02-09 12:11:00,20.0,17.0,-100.00,North,0,8.0,32.0,87,-99.99,,,-99.99,,2013-02-09 17:11:00,
2013-02-09 12:22:00,21.0,18.0,-100.00,WNW,285,5.0,18.0,88,-99.99,,,-99.99,,2013-02-09 17:22:00,
2013-02-09 12:32:00,21.0,18.0,-100.00,SW,220,3.0,28.0,88,-99.99,,,-99.99,,2013-02-09 17:32:00,
2013-02-09 12:42:00,21.0,18.0,-100.00,NNW,345,9.0,21.0,85,-99.99,,,-99.99,,2013-02-09 17:42:00,
2013-02-09 12:52:00,22.0,16.0,-100.00,North,5,9.0,24.0,80,-99.99,,,-99.99,,2013-02-09 17:52:00,
2013-02-09 13:02:00,22.0,16.0,-100.00,NNW,345,12.0,22.0,77,-99.99,,,-99.99,,2013-02-09 18:02:00,
2013-02-09 13:12:00,22.0,16.0,-100.00,NNW,345,6.0,27.0,77,-99.99,,,-99.99,,2013-02-09 18:12:00,
2013-02-09 13:23:00,22.0,15.0,-100.00,North,5,12.0,30.0,73,-99.99,,,-99.99,,2013-02-09 18:23:00,
2013-02-09 13:32:00,23.0,15.0,-100.00,NNW,335,6.0,30.0,73,-99.99,,,-99.99,,2013-02-09 18:32:00,
2013-02-09 13:42:00,23.0,15.0,-100.00,NNW,340,9.0,25.0,72,-99.99,,,-99.99,,2013-02-09 18:42:00,
2013-02-09 13:52:00,23.0,15.0,-100.00,NNE,15,7.0,22.0,73,-99.99,,,-99.99,,2013-02-09 18:52:00,
2013-02-09 14:02:00,23.0,15.0,-100.00,North,355,7.0,20.0,72,-99.99,,,-99.99,,2013-02-09 19:02:00,
2013-02-09 14:11:00,23.0,16.0,-100.00,North,0,7.0,16.0,72,-99.99,,,-99.99,,2013-02-09 19:11:00,
2013-02-09 14:22:00,23.0,15.0,-100.00,NNW,340,9.0,20.0,71,-99.99,,,-99.99,,2013-02-09 19:22:00,
2013-02-09 14:32:00,22.0,16.0,-100.00,NW,320,2.0,15.0,75,-99.99,,,-99.99,,2013-02-09 19:32:00,
2013-02-09 14:42:00,22.0,15.0,-100.00,WNW,290,3.0,17.0,72,-99.99,,,-99.99,,2013-02-09 19:42:00,
2013-02-09 14:52:00,22.0,15.0,-100.00,WNW,290,3.0,17.0,72,-99.99,,,-99.99,,2013-02-09 19:52:00,
2013-02-09 15:32:00,23.0,12.0,-100.00,North,0,3.0,18.0,62,-99.99,,,-99.99,,2013-02-09 20:32:00,
2013-02-09 15:42:00,23.0,12.0,-100.00,North,0,3.0,18.0,62,-99.99,,,-99.99,,2013-02-09 20:42:00,
2013-02-09 15:52:00,23.0,12.0,-100.00,NNW,330,6.0,18.0,61,-99.99,,,-99.99,,2013-02-09 20:52:00,
2013-02-09 16:02:00,23.0,11.0,-100.00,WNW,290,6.0,16.0,60,-99.99,,,-99.99,,2013-02-09 21:02:00,
2013-02-09 16:12:00,23.0,11.0,-100.00,NNW,345,7.0,17.0,60,-99.99,,,-99.99,,2013-02-09 21:12:00,
2013-02-09 16:22:00,23.0,11.0,-100.00,WNW,290,6.0,17.0,60,-99.99,,,-99.99,,2013-02-09 21:22:00,
2013-02-09 16:32:00,23.0,11.0,-100.00,WNW,300,3.0,15.0,60,-99.99,,,-99.99,,2013-02-09 21:32:00,
2013-02-09 16:42:00,22.0,10.0,-100.00,NNW,345,8.0,16.0,59,-99.99,,,-99.99,,2013-02-09 21:42:00,
2013-02-09 16:52:00,22.0,10.0,-100.00,NW,315,6.0,13.0,60,-99.99,,,-99.99,,2013-02-09 21:52:00,
2013-02-09 17:00:00,20.0,9.0,-100.00,WNW,295,5.0,21.0,62,-99.99,,,-99.99,,2013-02-09 22:00:00,
2013-02-09 17:01:00,22.0,10.0,-100.00,NW,315,6.0,13.0,60,-99.99,,,-99.99,,2013-02-09 22:01:00,
2013-02-09 17:11:00,22.0,9.0,-100.00,North,355,5.0,12.0,59,-99.99,,,-99.99,,2013-02-09 22:11:00,
2013-02-09 17:22:00,22.0,9.0,-100.00,North,355,5.0,12.0,59,-99.99,,,-99.99,,2013-02-09 22:22:00,
2013-02-09 17:42:00,20.0,9.0,-100.00,WNW,295,5.0,21.0,62,-99.99,,,-99.99,,2013-02-09 22:42:00,
2013-02-09 17:52:00,20.0,9.0,-100.00,WNW,295,5.0,21.0,62,-99.99,,,-99.99,,2013-02-09 22:52:00,
2013-02-09 18:11:00,20.0,9.0,-100.00,North,350,8.0,17.0,62,-99.99,,,-99.99,,2013-02-09 23:11:00,
2013-02-09 18:22:00,20.0,9.0,-100.00,NW,325,9.0,20.0,62,-99.99,,,-99.99,,2013-02-09 23:22:00,
2013-02-09 18:52:00,20.0,9.0,-100.00,NNW,330,2.0,17.0,62,-99.99,,,-99.99,,2013-02-09 23:52:00,
2013-02-09 19:02:00,20.0,8.0,-100.00,NW,320,6.0,12.0,61,-99.99,,,-99.99,,2013-02-10 00:02:00,
2013-02-09 20:01:00,19.0,6.0,-100.00,WNW,300,7.0,13.0,56,-99.99,,,-99.99,,2013-02-10 01:01:00,
2013-02-09 20:12:00,18.0,5.0,-100.00,WNW,290,5.0,10.0,56,-99.99,,,-99.99,,2013-02-10 01:12:00,
2013-02-09 20:22:00,18.0,5.0,-100.00,NNW,335,3.0,13.0,56,-99.99,,,-99.99,,2013-02-10 01:22:00,
2013-02-09 20:32:00,18.0,5.0,-100.00,NNW,335,3.0,13.0,56,-99.99,,,-99.99,,2013-02-10 01:32:00,
2013-02-09 20:42:00,18.0,5.0,-100.00,West,280,3.0,13.0,56,-99.99,,,-99.99,,2013-02-10 01:42:00,
2013-02-09 20:52:00,18.0,5.0,-100.00,West,275,5.0,13.0,56,-99.99,,,-99.99,,2013-02-10 01:52:00,
2013-02-09 21:01:00,18.0,5.0,-100.00,WNW,300,3.0,14.0,56,-99.99,,,-99.99,,2013-02-10 02:01:00,
2013-02-09 21:11:00,17.0,4.0,-100.00,WNW,300,3.0,13.0,56,-99.99,,,-99.99,,2013-02-10 02:11:00,
2013-02-09 21:22:00,17.0,4.0,-100.00,West,280,3.0,13.0,56,-99.99,,,-99.99,,2013-02-10 02:22:00,
2013-02-09 21:32:00,17.0,4.0,-100.00,West,260,6.0,15.0,56,-99.99,,,-99.99,,2013-02-10 02:32:00,
2013-02-09 21:42:00,17.0,4.0,-100.00,NW,305,2.0,12.0,57,-99.99,,,-99.99,,2013-02-10 02:42:00,
2013-02-09 21:52:00,16.0,4.0,-100.00,WNW,285,5.0,9.0,58,-99.99,,,-99.99,,2013-02-10 02:52:00,
2013-02-09 22:00:00,15.0,4.0,-100.00,West,270,3.0,13.0,59,-99.99,,,-99.99,,2013-02-10 03:00:00,
2013-02-09 22:02:00,16.0,4.0,-100.00,WNW,290,5.0,12.0,59,-99.99,,,-99.99,,2013-02-10 03:02:00,
2013-02-09 22:12:00,16.0,4.0,-100.00,West,260,3.0,10.0,58,-99.99,,,-99.99,,2013-02-10 03:12:00,
2013-02-09 22:22:00,16.0,4.0,-100.00,WNW,300,5.0,12.0,58,-99.99,,,-99.99,,2013-02-10 03:22:00,
2013-02-09 22:30:00,14.0,3.0,-100.00,WSW,250,3.0,15.0,59,-99.99,,,-99.99,,2013-02-10 03:30:00,
2013-02-09 22:32:00,15.0,4.0,-100.00,West,275,3.0,15.0,59,-99.99,,,-99.99,,2013-02-10 03:32:00,
2013-02-09 22:42:00,15.0,4.0,-100.00,West,270,3.0,13.0,59,-99.99,,,-99.99,,2013-02-10 03:42:00,
2013-02-09 22:52:00,15.0,4.0,-100.00,West,270,3.0,13.0,59,-99.99,,,-99.99,,2013-02-10 03:52:00,
2013-02-09 23:11:00,14.0,3.0,-100.00,WSW,250,3.0,15.0,59,-99.99,,,-99.99,,2013-02-10 04:11:00,
2013-02-09 23:22:00,14.0,3.0,-100.00,WSW,250,3.0,15.0,59,-99.99,,,-99.99,,2013-02-10 04:22:00,